ONEWEB-0275, 48993

Orbit data source: Space-Track

ONEWEB-0275, 48993 is a payload satellite owned by One Web (NAA) (UK) in LEO that was launched on Thu, 01 Jul 2021 UTC via a SOYUZ-2-1B launch vehicle from the Vostochny Cosmodrome (VOSTO). Payload-class satellites include a variety of spacecraft equipped with specific instruments for various scientific and technological missions. These include communications satellites like Starlink; space stations such as the ISS; scientific satellites like the Hubble; Earth observation satellites from companies like Planet Labs, Umbra, and HawkEye 360; GPS; miniature CubeSats for education and research; and military/defense satellites.

Loading next visibility...
Identifier
48993, 2021-060AC
Orbit
LEO
Country
Flag of UKUK
Related business
Manufacturer
One Web
Mission
Operational Commercial Communications
Bus & Motor
ARROW, Unknown motor
Mass
148 kg wet, ~140 kg dry
Launch date (UTC)
2021-07-01 (5 years ago)
Launch vehicle
SOYUZ-2-1B
Launch site
Vostochny Cosmodrome (VOSTO)
Object type
Payload
Rocket body
Debris
Shape & HBR
Trap Box + 2 Pan, 6.7 m
Radar Cross Section
3.464 m², Large (>1 m²)

Expand to show TLE details & history
Last TLE update: 2 days ago

TLE from 2 days ago
0 ONEWEB-0275
1 48993U 21060AC  26171.19331492  .00000006  00000-0 -17591-4 0  9995
2 48993  87.9095 228.1788 0001965  96.3596 263.7759 13.16594494239951
Epoch: 2026-06-20T04:38Z
TLE epoch observation values (Epoch: 2026-06-20T04:38:22.409Z)
Latitude
0.00002°
Longitude
-109.82602°
Altitude
1,200.814 km
Speed
7.253 km/s
True Right ascension
15h 12m 42s
True Declination
0° 00' 00"
Sunlit
Object was in full shadow at epoch
Visualization orbit readout
Latitude
Unknown
Longitude
Unknown
Altitude
Unknown
Speed
Unknown
Apparent Right ascension
Unknown
Apparent Declination
Unknown
Sunlit
N/A
Visualization observer readout
Local Sidereal Time
21:35:47
Azimuth
Unknown
Elevation
Unknown
Doppler factor
Unknown
Orbital elements
Apogee altitude
1,196.354 km
Perigee altitude
1,193.378 km
Semi-major axis
7,573.003 km
Eccentricity
0.0002
Inclination
87.9095°
RAAN
228.1788°
Arg. of periapsis
96.3596°
True anomaly
263.75352°
Mean anomaly
263.7759°
Eccentric anomaly
263.76471°
Mean motion
3.29337 °/min
Orbital period
109.31 mins
BSTAR
-0.000017591
Loading maneuver chart data...
Computing Atmospheric mass density...
Loading historical data...
Loading historical data...
Loading historical data...
Loading historical data...
Loading historical data...
Loading historical data...
Loading historical data...

Documentation

Showing up to 5 results
|